Location: Dos Caminos
(10.5417°N, 67.0167°W)
Time: 12:07:11
(UTC+00:00)

Daily predictions for brighter satellites

Satellite Brightness Start Highest point End
(mag) Time Altitude Azimuth Time Altitude Azimuth Time Altitude Azimuth
Gbstr 26 Del rocket 4.3 23:01:57 10° NNW 23:07:25 38° NE 23:11:55 10° ESE
Cosmos 1515 3.3 23:07:47 10° S 23:11:14 73° E 23:14:41 10° N
Cosmos 1076 Rocket 3.5 23:07:01 10° N 23:11:17 76° E 23:15:35 10° S
Cosmos 921 Rocket 3.0 23:07:47 10° S 23:12:12 76° ESE 23:16:40 10° NNE
SAR-Lupe-2 3.5 23:09:14 10° SSE 23:12:47 87° E 23:16:21 10° N
ATLAS 3B R/B 4.4 23:07:42 10° NNE 23:12:51 19° ENE 23:17:48 10° ESE
GPS 2-14 Rocket1 3.6 23:11:18 10° NW 23:14:00 28° NNE 23:16:41 10° ENE
Cosmos 1378 2.7 23:17:53 10° S 23:21:05 61° E 23:24:18 10° NNE
CZ-4B R/B 3.5 23:20:12 10° SSE 23:24:48 52° ENE 23:29:28 10° N
Cosmos 494 Rocket 3.9 23:22:15 10° SSW 23:27:20 90° SE 23:32:26 10° NNE
Cosmos 2278 Rocket 2.7 23:22:38 10° NNW 23:28:11 63° WSW 23:33:45 10° S
ATLAS 5 CENTAUR R/B 4.1 23:23:43 10° NW 23:29:37 37° WSW 23:36:14 10° S
Centaur AC-119 4.4 23:26:53 10° S 23:30:19 24° SE 23:37:54 10° E
NOAA 6 4.5 23:26:08 10° S 23:31:10 63° WSW 23:36:13 10° NNW
CBERS 1 LM4 rocket 4.5 23:27:57 10° SSE 23:32:59 84° ENE 23:38:13 10° N
Cosmos 192 4.3 23:29:00 10° N 23:33:56 76° ENE 23:38:50 10° SSE
Radarsat Rocket 4.2 23:30:52 10° S 23:36:38 71° WSW 23:42:42 10° NNW
SJ-6B 3.9 23:35:03 18° ESE 23:36:43 24° ENE 23:39:44 10° NNE
Landsat 7 3.7 23:40:08 10° SSE 23:44:50 90° WSW 23:49:31 10° NNW
USA 290 2.8 23:43:04 10° N 23:46:03 37° ENE 23:46:55 30° ESE
Tsikada Rocket 4.1 23:41:23 10° SSE 23:47:21 53° E 23:53:22 10° NNE
Cosmos 1603 3.6 23:45:51 10° SSW 23:51:28 87° ESE 23:57:07 10° NNE
